[[{"header":{"parameterUnit":"m.s-1","parameterCategory":1,"la1":30.2991,"la2":30.254,"lo1":-89.0895,"lo2":-89.0444,"dy":0.0017,"dx":0.0017,"nx":28,"ny":28,"refTime":"2024-04-17T21:00:00:Z","depth":0,"parameterNumber":2,"parameterNumberName":"U-component_of_WINDS"},"data":[0,0,0,0,0,0,0,0,0,0,0,0,0,0,0,0,0,0,0,0,0,0,0,0,0,0,0,0,0,0,0,0,0,0,0,0,0,0,0,0,0,0,0,0,0,0,0,0,0,0,0,0,0,0,0,0,0,0,-1.5577,-1.5577,0,-1.5607,-1.5608,-1.5608,-1.5618,-1.5618,-1.5618,-1.5618,-1.5648,-1.5649,-1.565,0,0,0,0,0,0,0,0,0,0,0,0,0,-1.5526,-1.5527,-1.5577,-1.5577,-1.5577,-1.5607,-1.5608,-1.5608,-1.5618,-1.5618,-1.5618,-1.5617,-1.5647,-1.5649,-1.565,0,0,0,0,0,0,0,0,0,0,0,0,0,-1.5551,-1.5527,-1.5577,-1.5586,-1.5587,-1.5607,-1.5608,-1.5608,-1.5618,-1.5618,-1.5618,-1.5617,-1.5647,-1.5648,-1.565,-1.5662,0,0,-1.5654,-1.5655,0,0,0,0,0,0,0,0,-1.555,-1.5553,-1.5584,-1.5585,-1.5587,-1.5609,-1.5601,-1.5626,-1.5618,-1.5606,-1.5618,-1.5617,-1.5635,-1.5637,-1.5643,-1.5664,-1.5665,-1.5654,-1.5655,-1.5656,-1.5656,0,0,0,0,0,0,0,-1.5548,-1.5552,-1.5589,-1.5585,-1.5586,-1.5588,-1.5592,-1.5606,-1.5621,-1.5607,-1.5608,-1.5612,-1.5635,-1.5642,-1.5644,-1.5665,-1.5654,-1.5655,-1.5656,-1.5657,-1.5698,-1.5698,0,0,0,0,0,0,-1.5545,-1.555,-1.5588,-1.559,-1.5568,-1.5589,-1.5593,-1.5602,-1.5621,-1.5624,-1.5612,-1.5612,-1.564,-1.5642,-1.5645,-1.5661,-1.5656,-1.5657,-1.5658,-1.5697,-1.5698,-1.5698,0,0,0,0,0,0,-1.5544,-1.5548,-1.5586,-1.557,-1.5575,-1.5591,-1.56,-1.5602,-1.5609,-1.5624,-1.5627,-1.5616,-1.564,-1.5643,-1.5658,-1.5662,-1.5657,-1.5659,-1.5697,-1.5697,-1.5698,-1.5693,0,0,0,0,0,0,-1.5542,-1.5548,-1.5553,-1.557,-1.5576,-1.5599,-1.56,-1.5603,-1.5611,-1.5612,-1.5629,-1.5631,-1.564,-1.5656,-1.5659,-1.5664,-1.566,-1.5697,-1.5697,-1.5698,-1.5692,-1.5693,-1.5693,0,0,0,0,0,-1.5541,-1.555,-1.5553,-1.5557,-1.5583,-1.5599,-1.5602,-1.5612,-1.5612,-1.5617,-1.5627,-1.5631,-1.5661,-1.5657,-1.5661,-1.5666,-1.5696,-1.5697,-1.5698,-1.5692,-1.5693,-1.5693,0,0,0,0,0,0,-1.5532,-1.5552,-1.5556,-1.5571,-1.5584,-1.5601,-1.5607,-1.5612,-1.5625,-1.5624,-1.5636,-1.564,-1.5653,-1.5661,-1.5657,-1.5679,-1.5679,-1.568,-1.5674,-1.5674,-1.5674,-1.5672,-1.5661,0,0,0,0,0,-1.5532,-1.5544,-1.5561,-1.5573,-1.5579,-1.5592,-1.56,-1.5606,-1.5619,-1.5624,-1.5635,-1.5647,-1.566,-1.5667,-1.568,-1.5694,-1.5698,-1.5699,-1.57,-1.57,-1.5701,-1.5709,-1.571,-1.57,-1.57,-1.57,0,0,-1.5532,-1.5544,-1.5551,-1.5571,-1.5582,-1.5593,-1.5596,-1.5609,-1.5617,-1.5626,-1.564,-1.5649,-1.5663,-1.5678,-1.5685,-1.5685,-1.5704,-1.57,-1.57,-1.5701,-1.571,-1.571,-1.5711,-1.57,-1.57,-1.57,0,0,-1.5538,-1.5549,-1.556,-1.557,-1.5585,-1.5594,-1.5597,-1.5614,-1.562,-1.5635,-1.5641,-1.5652,-1.5673,-1.5683,-1.5691,-1.5701,-1.5705,-1.5704,-1.5706,-1.5713,-1.5714,-1.5715,-1.5718,-1.5719,-1.5705,-1.5705,-1.5705,0,-1.5535,-1.5554,-1.5565,-1.5577,-1.5585,-1.5594,-1.5605,-1.5614,-1.5633,-1.5639,-1.5639,-1.5665,-1.5676,-1.5693,-1.5695,-1.5701,-1.5704,-1.5702,-1.5713,-1.5714,-1.5715,-1.5718,-1.572,-1.5705,-1.5705,-1.5705,-1.5705,0,-1.555,-1.5563,-1.557,-1.5588,-1.5597,-1.5609,-1.5621,-1.5629,-1.5635,-1.5644,-1.5659,-1.5672,-1.5687,-1.5692,-1.5697,-1.5709,-1.5709,-1.5711,-1.5711,-1.5716,-1.5719,-1.572,-1.5705,-1.5705,-1.5705,-1.5705,0,0,-1.5551,-1.5575,-1.5577,-1.5586,-1.5604,-1.5613,-1.5625,-1.564,-1.5647,-1.566,-1.567,-1.5688,-1.569,-1.5699,-1.5706,-1.5713,-1.572,-1.5714,-1.5714,-1.5714,-1.5734,-1.5732,-1.5733,-1.5723,-1.5723,-1.5723,-1.5733,0,-1.5559,-1.558,-1.5591,-1.5608,-1.562,-1.5628,-1.5639,-1.5651,-1.5659,-1.567,-1.568,-1.5692,-1.5694,-1.57,-1.5707,-1.5717,-1.5724,-1.5717,-1.5732,-1.5732,-1.5728,-1.5735,-1.5733,-1.5741,-1.5734,-1.5734,-1.5734,0,-1.5571,-1.5583,-1.5602,-1.5619,-1.5624,-1.5633,-1.5648,-1.5658,-1.5672,-1.5678,-1.5688,-1.5695,-1.5708,-1.5707,-1.5725,-1.572,-1.5727,-1.5733,-1.5733,-1.5735,-1.5733,-1.5736,-1.5744,-1.5745,-1.5737,-1.5736,-1.5736,0,-1.5569,-1.5591,-1.5605,-1.5612,-1.5632,-1.5638,-1.5646,-1.566,-1.5668,-1.5681,-1.5687,-1.5701,-1.5708,-1.5719,-1.573,-1.5728,-1.5746,-1.5746,-1.5751,-1.5751,-1.5754,-1.5754,-1.5762,-1.5759,-1.5759,-1.5759,-1.5759,0,-1.5576,-1.5587,-1.5604,-1.5613,-1.5625,-1.5637,-1.5649,-1.5658,-1.567,-1.568,-1.5689,-1.5698,-1.5712,-1.5723,-1.5731,-1.5745,-1.5748,-1.5753,-1.5755,-1.5752,-1.5751,-1.5756,-1.5756,-1.576,-1.576,-1.5759,-1.5759,0,-1.5576,-1.5588,-1.5604,-1.5621,-1.5626,-1.5635,-1.565,-1.5658,-1.5667,-1.568,-1.5684,-1.5699,-1.5712,-1.5724,-1.5742,-1.5748,-1.5761,-1.5764,-1.5756,-1.5757,-1.5762,-1.5761,-1.5774,-1.5776,-1.5771,-1.5771,-1.5771,0,-1.558,-1.5588,-1.5607,-1.5615,-1.5623,-1.5635,-1.5644,-1.5656,-1.5665,-1.5681,-1.5688,-1.5702,-1.5714,-1.5736,-1.5748,-1.5762,-1.5764,-1.5768,-1.5766,-1.5763,-1.5764,-1.5763,-1.5764,-1.5768,-1.5768,-1.5768,-1.5768,0,-1.5585,-1.5591,-1.5603,-1.5617,-1.5628,-1.5639,-1.5652,-1.5657,-1.5672,-1.5681,-1.5695,-1.5704,-1.5723,-1.5737,-1.5752,-1.5761,-1.5767,-1.5768,-1.577,-1.5767,-1.5762,-1.5764,-1.5756,-1.5768,-1.5768,-1.5768,-1.5768,-1.5768,-1.5587,-1.5595,-1.5609,-1.5623,-1.5633,-1.5644,-1.5653,-1.5664,-1.5676,-1.5692,-1.5698,-1.5713,-1.5727,-1.5748,-1.5757,-1.5768,-1.5769,-1.5772,-1.5772,-1.5772,-1.5772,-1.5761,-1.5771,-1.5771,-1.5771,-1.5771,-1.5771,0,-1.5592,-1.5602,-1.5614,-1.5631,-1.5642,-1.5646,-1.566,-1.5669,-1.5681,-1.5694,-1.5706,-1.5722,-1.5736,-1.5749,-1.5764,-1.577,-1.5773,-1.5774,-1.5773,-1.5775,-1.577,-1.5767,-1.5771,-1.5771,-1.5771,-1.5771,-1.5771,-1.5771,-1.5596,-1.561,-1.5617,-1.5636,-1.5646,-1.566,-1.5668,-1.5678,-1.5688,-1.5706,-1.5718,-1.5726,-1.5739,-1.5755,-1.5768,-1.5772,-1.5776,-1.5776,-1.578,-1.5776,-1.5775,-1.5775,-1.5772,-1.5777,-1.5777,-1.5784,-1.5784,-1.5784]},{"header":{"parameterUnit":"m.s-1","parameterCategory":1,"la1":30.2991,"la2":30.254,"lo1":-89.0895,"lo2":-89.0444,"dy":0.0017,"dx":0.0017,"nx":28,"ny":28,"refTime":"2024-04-17T21:00:00:Z","depth":0,"parameterNumber":3,"parameterNumberName":"V-component_of_WINDS"},"data":[0,0,0,0,0,0,0,0,0,0,0,0,0,0,0,0,0,0,0,0,0,0,0,0,0,0,0,0,0,0,0,0,0,0,0,0,0,0,0,0,0,0,0,0,0,0,0,0,0,0,0,0,0,0,0,0,0,0,4.6551,4.6551,0,4.6528,4.6528,4.6528,4.6498,4.6497,4.6497,4.6496,4.647,4.6469,4.6469,0,0,0,0,0,0,0,0,0,0,0,0,0,4.6568,4.6568,4.6551,4.6551,4.6551,4.6528,4.6528,4.6528,4.6498,4.6497,4.6496,4.6496,4.647,4.6469,4.6469,0,0,0,0,0,0,0,0,0,0,0,0,0,4.6554,4.6568,4.6551,4.6533,4.6531,4.6529,4.6528,4.6528,4.6498,4.6497,4.6496,4.6496,4.647,4.6469,4.6469,4.6481,0,0,4.6468,4.6468,0,0,0,0,0,0,0,0,4.6555,4.6554,4.6536,4.6534,4.6532,4.6515,4.6524,4.6512,4.6498,4.651,4.6496,4.6495,4.6485,4.6483,4.6481,4.648,4.6479,4.6468,4.6468,4.6467,4.6467,0,0,0,0,0,0,0,4.6556,4.6554,4.6542,4.6536,4.6533,4.6526,4.6523,4.6522,4.6502,4.6509,4.6507,4.6505,4.6484,4.6481,4.648,4.6479,4.6468,4.6468,4.6467,4.6467,4.6491,4.6492,0,0,0,0,0,0,4.656,4.6555,4.6543,4.6541,4.6542,4.6526,4.6523,4.6521,4.6502,4.6498,4.6506,4.6504,4.6482,4.648,4.6479,4.6495,4.6467,4.6467,4.6467,4.649,4.6491,4.6492,0,0,0,0,0,0,4.656,4.6559,4.6544,4.6548,4.6545,4.6527,4.6525,4.6521,4.6518,4.6499,4.6495,4.6506,4.6481,4.6479,4.6482,4.6493,4.6467,4.6467,4.6489,4.649,4.6492,4.6525,0,0,0,0,0,0,4.6561,4.6559,4.6564,4.6548,4.6545,4.6548,4.6526,4.6521,4.6518,4.6515,4.6499,4.6496,4.6481,4.6483,4.6482,4.6492,4.6466,4.6488,4.649,4.6491,4.6523,4.6527,4.6531,0,0,0,0,0,4.6562,4.6573,4.6564,4.6563,4.6551,4.6548,4.6547,4.653,4.6519,4.6524,4.6512,4.6496,4.6492,4.6483,4.6482,4.6492,4.6487,4.6489,4.6491,4.6521,4.6527,4.6531,0,0,0,0,0,0,4.6588,4.657,4.6561,4.6567,4.656,4.6543,4.6548,4.6536,4.6531,4.6528,4.6507,4.6504,4.651,4.6501,4.6491,4.6505,4.6487,4.6489,4.6511,4.6516,4.652,4.6522,4.6466,0,0,0,0,0,4.6595,4.6596,4.6579,4.6587,4.6584,4.6567,4.6565,4.6554,4.6545,4.6541,4.6529,4.6521,4.6518,4.6516,4.6512,4.6521,4.6519,4.6528,4.6532,4.6536,4.6538,4.6545,4.655,4.6498,4.6498,4.6498,0,0,4.6609,4.6599,4.66,4.6592,4.6585,4.6586,4.6564,4.6565,4.6566,4.6541,4.6544,4.6535,4.6524,4.6531,4.6534,4.6524,4.6552,4.6538,4.6541,4.6541,4.6548,4.6553,4.6557,4.65,4.6499,4.6499,0,0,4.6635,4.6627,4.6633,4.6628,4.6618,4.6608,4.661,4.6596,4.659,4.6593,4.6575,4.6575,4.6569,4.6564,4.656,4.6587,4.6573,4.6586,4.6608,4.6616,4.662,4.6624,4.6636,4.664,4.6588,4.6588,4.6588,0,4.6653,4.6654,4.6638,4.6642,4.664,4.6619,4.6626,4.6621,4.661,4.6609,4.6599,4.6594,4.6585,4.6592,4.66,4.6596,4.6599,4.6588,4.6621,4.6624,4.6627,4.6639,4.6643,4.659,4.659,4.659,4.659,0,4.6678,4.668,4.6686,4.6679,4.6677,4.6683,4.6668,4.6668,4.6657,4.6648,4.6653,4.6642,4.6637,4.6637,4.6625,4.6643,4.6638,4.6625,4.6607,4.6634,4.6645,4.6649,4.6593,4.6592,4.6592,4.6591,0,0,4.6718,4.6705,4.6708,4.6706,4.6695,4.6696,4.6701,4.6698,4.67,4.6694,4.6699,4.6696,4.6685,4.6681,4.6669,4.6675,4.6701,4.6661,4.666,4.6671,4.6724,4.6736,4.6741,4.6692,4.6692,4.6693,4.6726,0,4.6744,4.6753,4.674,4.6753,4.6755,4.6737,4.6742,4.6736,4.6728,4.6729,4.672,4.672,4.6703,4.6701,4.6707,4.6697,4.6712,4.6694,4.6697,4.6697,4.6702,4.6746,4.6757,4.6789,4.6729,4.673,4.673,0,4.6774,4.6772,4.6786,4.6778,4.6779,4.6783,4.6781,4.6782,4.6776,4.677,4.6768,4.6754,4.676,4.6742,4.675,4.6738,4.6739,4.6734,4.6735,4.6736,4.6717,4.675,4.6798,4.6803,4.6736,4.6736,4.6735,0,4.6805,4.6806,4.6815,4.6814,4.6804,4.6808,4.6804,4.6798,4.6798,4.6796,4.6796,4.6794,4.6793,4.6792,4.6779,4.6767,4.679,4.677,4.6786,4.6786,4.6792,4.6792,4.6843,4.6789,4.6789,4.6789,4.6789,0,4.6835,4.6845,4.683,4.6835,4.6846,4.6832,4.6843,4.6837,4.6832,4.6836,4.6819,4.6824,4.6806,4.6808,4.6798,4.6808,4.6807,4.6803,4.68,4.6805,4.6806,4.6806,4.6805,4.679,4.679,4.679,4.679,0,4.6872,4.6862,4.6871,4.6863,4.6861,4.687,4.6862,4.6868,4.686,4.6866,4.6867,4.6854,4.6857,4.6844,4.6843,4.6837,4.6853,4.6845,4.6855,4.6854,4.6871,4.6871,4.6925,4.6933,4.6873,4.6873,4.6874,0,4.6892,4.69,4.6894,4.6897,4.6895,4.6899,4.69,4.6886,4.6888,4.6884,4.6891,4.6893,4.6894,4.6899,4.689,4.6891,4.6884,4.6904,4.6884,4.689,4.6888,4.6888,4.689,4.6908,4.6909,4.6909,4.691,0,4.6931,4.6927,4.693,4.6932,4.6935,4.6935,4.6935,4.6938,4.6924,4.6927,4.6931,4.6932,4.6934,4.6937,4.6936,4.6932,4.6919,4.6916,4.692,4.6926,4.6933,4.6932,4.6869,4.6915,4.6914,4.6914,4.6914,4.6913,4.6961,4.6969,4.6967,4.6972,4.6971,4.6971,4.6977,4.6972,4.6975,4.6977,4.6969,4.6976,4.6972,4.697,4.6968,4.6973,4.6964,4.6969,4.6971,4.6973,4.6978,4.6931,4.6972,4.6972,4.6972,4.6972,4.6972,0,4.7001,4.7,4.7005,4.7007,4.7011,4.7,4.7,4.7004,4.7011,4.701,4.7012,4.7019,4.7022,4.7015,4.7017,4.7023,4.7018,4.7025,4.7025,4.7025,4.6984,4.6981,4.7029,4.7029,4.7029,4.7029,4.7029,4.7029,4.7023,4.7036,4.7032,4.7045,4.7043,4.7051,4.7052,4.7054,4.7053,4.7062,4.7066,4.7061,4.7058,4.7061,4.7065,4.7062,4.7065,4.7075,4.707,4.7033,4.7027,4.7022,4.7019,4.7075,4.7075,4.7111,4.7111,4.7112]}]]